Location: Newark
(30.0333°N, 31.2167°E)
Time: 05:45:19
(UTC+00:00)

Starlink Launch 2 leader - Visible Passes

Search period start: 08 December 2019 00:00
Search period end: 18 December 2019 00:00
Orbit: 279 x 281 km, 53.0° (Epoch: 13 November)

Date Brightness Start Highest point End Pass type
(mag) Time Alt. Az. Time Alt. Az. Time Alt. Az.
10 Dec 4.6 03:52:42 10° N 03:54:37 20° NE 03:56:30 10° E visible
11 Dec 2.9 03:54:25 12° NNW 03:56:35 49° NE 03:58:58 10° SE visible
12 Dec 2.5 03:56:43 16° WNW 03:58:28 49° SW 04:00:51 10° SSE visible
13 Dec 4.1 03:59:07 13° W 04:00:18 18° SW 04:02:05 10° S visible
